User: anonymous   Login
Location: Unspecified
(0.0000°N, 0.0000°E)
Time: 07:42:56
(UTC+00:00)
Language:

TBA - TO BE ASSIGNED - Orbit

View from above orbital plane
View from above orbital plane
View from above satellite
View from above satellite

Ground track
Ground track

The orbit is defined by the following mean orbital elements,

1 68231U          26145.62201863 +.00000000 +00000-0 +66645-3 0 00009
2 68231  97.2883  21.1507 0002788  95.3709 264.7852 15.33474043    01
Epoch (UTC): 25 May 2026 14:55:42
Eccentricity: 0.0002788
inclination: 97.2883°
perigee height: 464 km
apogee height: 467 km
right ascension of ascending node: 21.1507°
argument of perigee: 95.3709°
revolutions per day: 15.33474043
mean anomaly at epoch: 264.7852°

The dashed part of the orbit path shows where the satellite is in the earth's shadow,  

DLR